sat.trackr.live / text

‹ back to catalog

STARLINK-32645

NORAD 62321 · 2024-239W

PAYLOAD ACTIVE UNKNOWN

§ Identity

Operator
Country
US
Launch date
2024-12-13
Launch site
AFWTR
Launch vehicle
Mass (kg)
RCS (m²)

Purposes: comms

External: N2YO · Heavens-Above · Gunter

§ Orbital elements

Epoch: 2026-09-21T11:12:15.946272Z

Period
93.85 min
Inclination
53.1600°
Eccentricity
0.0001030
Mean motion
15.34399413 rev/d
Perigee alt
462.0 km
Apogee alt
463.4 km
Semi-major
6,840.8 km
B*
6.3529e-4
RAAN
349.2655°
Arg perigee
139.7635°
Mean anomaly
220.3444°
Rev number
9,957

§ Raw data

STARLINK-326451 62321U 24239W   26264.46685123  .00021148  00000+0  63529-3 0  99922 62321  53.1600 349.2655 0001030 139.7635 220.3444 15.34399413 99574

JSON: /api/v1/satellites/62321 · /tle

For live sub-satellite position, see the globe view (requires WebGL).

§ Visibility from observer

Set your observer location to see the next 7 days of passes ≥ 10°. The values pass through the URL so the page stays shareable.

No JS? Fill the form by hand. The geolocation button needs JavaScript.